Location: College Park
(38.9810°N, 76.9370°W)
Time: 10:59:02
(UTC-04:00)

Envisat - Pass Details

Date: 12 February 2018
Orbit: 764 x 766 km, 98.2° (Epoch: 20 May)

Event Time Altitude Azimuth Distance (km) Brightness Sun altitude
Exits shadow 19:28:21 16° 155° (SSE) 1,911 4.8 -21.2°
Maximum altitude 19:32:24 69° 75° (ENE) 820 2.8 -22.0°
Drops below altitude 10° 19:37:27 10° 353° (N) 2,308 5.6 -23.0°
Sets 19:39:46 0° 351° (N) 3,239 6.4 -23.4°
